Tracking 35237 objects as of 6-Sep-2026
HD Live streaming from Space Station
objects crossing your sky now

STARLINK-34634

Track STARLINK-34634 now!
10-day predictions
STARLINK-34634 is classified as:


NORAD ID: 65079
Int'l Code: 2025-167B
Launch date: August 4, 2025
Source: United States (US)
Launch site: AIR FORCE EASTERN TEST RANGE (AFETR)
Your satellite tracking list
Your tracking list is empty




NASA's NSSDC Master Catalog

Two Line Element Set (TLE):
1 65079U 25167B   26248.43012917  .00012612  00000-0  38377-3 0  9990
2 65079  53.1588 265.8246 0001316  87.6968 272.4185 15.34398940 61087
Source of the keplerian elements: AFSPC